This is the latest recevied weather packets stored in our database for station/object K0QJ. If no packets are shown the sender has not sent any weather packets the latest 10 day(s).
| Time | Temp. | Humidity | Pressure | Rain* | Wind** | Luminosity | Snow |
|---|---|---|---|---|---|---|---|
| 1777899171 | 18.33° C | 59% | 1002.7 hPa | 0 mm | - | 52 W/m² | - |
| 1777898868 | 17.78° C | 59% | 1002.5 hPa | 0 mm | - | 42 W/m² | - |
| 1777898565 | 17.78° C | 59% | 1002.6 hPa | 0 mm | - | 30 W/m² | - |
| 1777898263 | 17.78° C | 59% | 1002.5 hPa | 0 mm | - | 29 W/m² | - |
| 1777897960 | 17.78° C | 59% | 1002.7 hPa | 0 mm | - | 26 W/m² | - |
| 1777897656 | 17.78° C | 59% | 1002.6 hPa | 0 mm | - | 25 W/m² | - |
| 1777897352 | 17.78° C | 59% | 1002.7 hPa | 0 mm | - | 25 W/m² | - |
| 1777897048 | 17.78° C | 59% | 1002.8 hPa | 0 mm | - | 22 W/m² | - |
| 1777896745 | 17.78° C | 58% | 1003 hPa | 0 mm | - | 19 W/m² | - |
| 1777896442 | 17.78° C | 58% | 1002.7 hPa | 0 mm | - | 16 W/m² | - |
| 1777896140 | 17.78° C | 58% | 1003 hPa | 0 mm | - | 13 W/m² | - |
| 1777895838 | 17.78° C | 57% | 1002.6 hPa | 0 mm | - | 12 W/m² | - |
| 1777895535 | 17.78° C | 58% | 1002.6 hPa | 0 mm | - | 10 W/m² | - |
| 1777895232 | 17.78° C | 57% | 1002.6 hPa | 0 mm | - | 8 W/m² | - |
| 1777894930 | 17.78° C | 57% | 1002.5 hPa | 0 mm | - | 6 W/m² | - |
| 1777894627 | 17.78° C | 57% | 1002.7 hPa | 0 mm | - | 6 W/m² | - |
| 1777894323 | 17.78° C | 56% | 1002.6 hPa | 0 mm | - | 4 W/m² | - |
| 1777894021 | 17.78° C | 56% | 1002.7 hPa | 0 mm | - | 2 W/m² | - |
| 1777893717 | 17.78° C | 57% | 1002.8 hPa | 0 mm | - | 0 W/m² | - |
| 1777893408 | 17.78° C | 56% | 1003.1 hPa | 0 mm | - | 0 W/m² | - |
| 1777893104 | 17.78° C | 56% | 1003 hPa | 0 mm | - | 0 W/m² | - |
| 1777892801 | 18.33° C | 56% | 1003.1 hPa | 0 mm | - | 0 W/m² | - |
| 1777892498 | 18.33° C | 56% | 1003.1 hPa | 0 mm | - | 0 W/m² | - |
| 1777892193 | 18.33° C | 55% | 1003.2 hPa | 0 mm | - | 0 W/m² | - |
| 1777891890 | 18.33° C | 55% | 1003.5 hPa | 0 mm | - | 0 W/m² | - |
* Rain latest hour (hover to see other rain measurements)
** Current wind speed in m/s (hover to see current wind gust speed)